Time,TemperatureF,DewpointF,PressureIn,WindDirection,WindDirectionDegrees,WindSpeedMPH,WindSpeedGustMPH,Humidity,HourlyPrecipIn,Conditions,Clouds,dailyrainin,SoftwareType,DateUTC
2013-07-27 00:04:00,58.6,58.0,29.89,West,274,0.0,0.0,97,0.00,,,1.58,weatherlink.com 1.10,2013-07-27 05:04:00,
2013-07-27 00:19:00,58.3,58.0,29.89,West,274,0.0,0.0,97,0.00,,,1.58,weatherlink.com 1.10,2013-07-27 05:19:00,
2013-07-27 00:34:00,58.1,57.0,29.89,West,274,0.0,1.0,97,0.00,,,1.58,weatherlink.com 1.10,2013-07-27 05:34:00,
2013-07-27 00:49:00,57.7,57.0,29.88,West,274,0.0,0.0,97,0.00,,,1.58,weatherlink.com 1.10,2013-07-27 05:49:00,
2013-07-27 01:04:00,57.6,57.0,29.88,West,281,0.0,3.0,97,0.00,,,1.58,weatherlink.com 1.10,2013-07-27 06:04:00,
2013-07-27 01:19:00,57.5,57.0,29.88,West,281,0.0,1.0,97,0.00,,,1.58,weatherlink.com 1.10,2013-07-27 06:19:00,
2013-07-27 01:34:00,57.2,56.0,29.87,West,281,1.0,2.0,97,0.00,,,1.58,weatherlink.com 1.10,2013-07-27 06:34:00,
2013-07-27 01:50:00,57.1,56.0,29.87,WNW,286,0.0,2.0,97,0.00,,,1.58,weatherlink.com 1.10,2013-07-27 06:50:00,
2013-07-27 02:05:00,56.9,56.0,29.87,West,269,1.0,3.0,97,0.00,,,1.58,weatherlink.com 1.10,2013-07-27 07:05:00,
2013-07-27 02:20:00,57.0,56.0,29.87,West,272,1.0,3.0,97,0.00,,,1.58,weatherlink.com 1.10,2013-07-27 07:20:00,
2013-07-27 02:35:00,56.9,56.0,29.88,West,276,1.0,3.0,97,0.00,,,1.58,weatherlink.com 1.10,2013-07-27 07:35:00,
2013-07-27 02:50:00,56.8,56.0,29.88,West,272,1.0,3.0,97,0.00,,,0.00,weatherlink.com 1.10,2013-07-27 07:50:00,
2013-07-27 03:05:00,56.6,56.0,29.88,West,272,0.0,2.0,97,0.00,,,0.00,weatherlink.com 1.10,2013-07-27 08:05:00,
2013-07-27 03:20:00,56.4,56.0,29.88,West,272,0.0,0.0,97,0.00,,,0.00,weatherlink.com 1.10,2013-07-27 08:20:00,
2013-07-27 03:35:00,56.2,55.0,29.89,West,272,0.0,0.0,97,0.00,,,0.00,weatherlink.com 1.10,2013-07-27 08:35:00,
2013-07-27 03:50:00,56.0,55.0,29.89,West,272,0.0,1.0,97,0.00,,,0.00,weatherlink.com 1.10,2013-07-27 08:50:00,
2013-07-27 04:05:00,55.9,55.0,29.89,West,272,0.0,0.0,97,0.00,,,0.00,weatherlink.com 1.10,2013-07-27 09:05:00,
2013-07-27 04:20:00,55.8,55.0,29.90,West,272,0.0,0.0,97,0.00,,,0.00,weatherlink.com 1.10,2013-07-27 09:20:00,
2013-07-27 04:35:00,56.0,56.0,29.90,WNW,291,1.0,2.0,98,0.00,,,0.00,weatherlink.com 1.10,2013-07-27 09:35:00,
2013-07-27 04:50:00,56.4,56.0,29.91,WNW,291,1.0,2.0,98,0.00,,,0.00,weatherlink.com 1.10,2013-07-27 09:50:00,
2013-07-27 05:05:00,56.6,56.0,29.91,NW,313,1.0,3.0,98,0.00,,,0.00,weatherlink.com 1.10,2013-07-27 10:05:00,
2013-07-27 05:20:00,56.6,56.0,29.91,NW,323,0.0,4.0,97,0.00,,,0.00,weatherlink.com 1.10,2013-07-27 10:20:00,
2013-07-27 05:35:00,56.1,55.0,29.92,NW,326,1.0,4.0,96,0.00,,,0.00,weatherlink.com 1.10,2013-07-27 10:35:00,
2013-07-27 05:50:00,55.3,54.0,29.92,NW,322,3.0,3.0,95,0.00,,,0.00,weatherlink.com 1.10,2013-07-27 10:50:00,
2013-07-27 06:05:00,54.9,53.0,29.93,NNW,332,3.0,5.0,94,0.00,,,0.00,weatherlink.com 1.10,2013-07-27 11:05:00,
2013-07-27 06:20:00,54.6,53.0,29.92,NW,323,2.0,4.0,94,0.00,,,0.00,weatherlink.com 1.10,2013-07-27 11:20:00,
2013-07-27 06:35:00,54.5,53.0,29.93,NW,322,1.0,3.0,94,0.00,,,0.00,weatherlink.com 1.10,2013-07-27 11:35:00,
2013-07-27 06:50:00,54.5,53.0,29.92,NW,323,0.0,2.0,94,0.00,,,0.00,weatherlink.com 1.10,2013-07-27 11:50:00,
2013-07-27 07:05:00,54.7,53.0,29.92,NNW,343,0.0,2.0,94,0.00,,,0.00,weatherlink.com 1.10,2013-07-27 12:05:00,
2013-07-27 07:20:00,54.6,53.0,29.93,NNW,328,2.0,3.0,93,0.00,,,0.00,weatherlink.com 1.10,2013-07-27 12:20:00,
2013-07-27 07:35:00,54.8,53.0,29.92,NW,326,0.0,2.0,94,0.00,,,0.00,weatherlink.com 1.10,2013-07-27 12:35:00,
2013-07-27 07:50:00,54.8,53.0,29.93,NNW,327,0.0,3.0,93,0.00,,,0.00,weatherlink.com 1.10,2013-07-27 12:50:00,
2013-07-27 08:05:00,55.1,53.0,29.93,NNW,336,1.0,5.0,93,0.00,,,0.00,weatherlink.com 1.10,2013-07-27 13:05:00,
2013-07-27 08:20:00,55.2,53.0,29.93,NW,319,3.0,6.0,91,0.00,,,0.00,weatherlink.com 1.10,2013-07-27 13:20:00,
2013-07-27 08:35:00,55.2,52.0,29.94,NW,323,3.0,6.0,90,0.00,,,0.00,weatherlink.com 1.10,2013-07-27 13:35:00,
2013-07-27 08:50:00,55.9,52.0,29.94,NW,310,4.0,5.0,88,0.00,,,0.00,weatherlink.com 1.10,2013-07-27 13:50:00,
2013-07-27 09:05:00,56.1,52.0,29.93,NNW,336,3.0,5.0,85,0.00,,,0.00,weatherlink.com 1.10,2013-07-27 14:05:00,
2013-07-27 09:20:00,56.3,52.0,29.93,NNW,335,2.0,6.0,85,0.00,,,0.00,weatherlink.com 1.10,2013-07-27 14:20:00,
2013-07-27 09:35:00,56.1,51.0,29.93,NW,315,0.0,5.0,83,0.00,,,0.00,weatherlink.com 1.10,2013-07-27 14:35:00,
2013-07-27 09:50:00,56.4,51.0,29.93,NW,321,2.0,4.0,83,0.00,,,0.00,weatherlink.com 1.10,2013-07-27 14:50:00,
2013-07-27 10:05:00,56.8,51.0,29.93,NNW,338,2.0,9.0,80,0.00,,,0.00,weatherlink.com 1.10,2013-07-27 15:05:00,
2013-07-27 10:20:00,57.6,51.0,29.93,North,360,3.0,6.0,78,0.00,,,0.00,weatherlink.com 1.10,2013-07-27 15:20:00,
2013-07-27 10:35:00,58.5,53.0,29.92,NW,311,2.0,9.0,81,0.00,,,0.00,weatherlink.com 1.10,2013-07-27 15:35:00,
2013-07-27 10:50:00,59.2,52.0,29.92,NW,317,3.0,5.0,78,0.00,,,0.00,weatherlink.com 1.10,2013-07-27 15:50:00,
2013-07-27 11:05:00,59.7,52.0,29.92,West,269,3.0,9.0,77,0.00,,,0.00,weatherlink.com 1.10,2013-07-27 16:05:00,
2013-07-27 11:20:00,59.2,52.0,29.92,West,263,1.0,7.0,77,0.00,,,0.00,weatherlink.com 1.10,2013-07-27 16:20:00,
2013-07-27 11:36:00,59.8,52.0,29.92,NW,321,8.0,8.0,75,0.00,,,0.00,weatherlink.com 1.10,2013-07-27 16:36:00,
2013-07-27 11:50:00,59.0,51.0,29.92,NNW,329,1.0,7.0,76,0.00,,,0.00,weatherlink.com 1.10,2013-07-27 16:50:00,
2013-07-27 12:05:00,59.4,51.0,29.92,North,355,1.0,6.0,73,0.00,,,0.00,weatherlink.com 1.10,2013-07-27 17:05:00,
2013-07-27 12:20:00,58.7,52.0,29.93,NW,323,1.0,7.0,77,0.00,,,0.00,weatherlink.com 1.10,2013-07-27 17:20:00,
2013-07-27 12:35:00,58.9,52.0,29.93,WNW,300,3.0,7.0,77,0.00,,,0.00,weatherlink.com 1.10,2013-07-27 17:35:00,
2013-07-27 12:50:00,59.9,52.0,29.93,NW,323,3.0,6.0,76,0.00,,,0.00,weatherlink.com 1.10,2013-07-27 17:50:00,
2013-07-27 13:06:00,60.6,52.0,29.92,NNW,329,4.0,10.0,73,0.00,,,0.00,weatherlink.com 1.10,2013-07-27 18:06:00,
2013-07-27 13:21:00,61.0,53.0,29.92,WNW,300,3.0,7.0,75,0.00,,,0.00,weatherlink.com 1.10,2013-07-27 18:21:00,
2013-07-27 13:36:00,60.0,51.0,29.93,West,275,3.0,10.0,73,0.00,,,0.00,weatherlink.com 1.10,2013-07-27 18:36:00,
2013-07-27 13:51:00,61.1,51.0,29.93,NW,319,4.0,9.0,70,0.00,,,0.00,weatherlink.com 1.10,2013-07-27 18:51:00,
2013-07-27 14:06:00,62.0,51.0,29.92,NW,320,2.0,8.0,68,0.00,,,0.00,weatherlink.com 1.10,2013-07-27 19:06:00,
2013-07-27 14:21:00,62.2,51.0,29.92,WNW,296,2.0,13.0,66,0.00,,,0.00,weatherlink.com 1.10,2013-07-27 19:21:00,
2013-07-27 14:36:00,61.8,50.0,29.92,NW,316,3.0,10.0,65,0.00,,,0.00,weatherlink.com 1.10,2013-07-27 19:36:00,
2013-07-27 14:51:00,61.5,50.0,29.92,NNW,331,3.0,7.0,66,0.00,,,0.00,weatherlink.com 1.10,2013-07-27 19:51:00,
2013-07-27 15:06:00,61.8,50.0,29.92,NNW,331,3.0,6.0,65,0.00,,,0.00,weatherlink.com 1.10,2013-07-27 20:06:00,
2013-07-27 15:21:00,61.8,49.0,29.92,NNW,329,2.0,9.0,63,0.00,,,0.00,weatherlink.com 1.10,2013-07-27 20:21:00,
2013-07-27 15:36:00,61.4,50.0,29.92,NW,306,1.0,6.0,66,0.00,,,0.00,weatherlink.com 1.10,2013-07-27 20:36:00,
2013-07-27 15:51:00,60.8,48.0,29.92,NW,317,4.0,7.0,64,0.00,,,0.00,weatherlink.com 1.10,2013-07-27 20:51:00,
2013-07-27 16:06:00,60.9,49.0,29.92,NW,323,4.0,8.0,65,0.00,,,0.00,weatherlink.com 1.10,2013-07-27 21:06:00,
2013-07-27 16:21:00,61.3,51.0,29.92,NW,318,3.0,5.0,68,0.00,,,0.00,weatherlink.com 1.10,2013-07-27 21:21:00,
2013-07-27 16:36:00,61.2,50.0,29.92,NNW,331,1.0,7.0,67,0.00,,,0.00,weatherlink.com 1.10,2013-07-27 21:36:00,
2013-07-27 16:51:00,60.8,50.0,29.92,WNW,286,3.0,7.0,67,0.00,,,0.00,weatherlink.com 1.10,2013-07-27 21:51:00,
2013-07-27 17:06:00,60.2,50.0,29.92,NW,309,1.0,5.0,69,0.00,,,0.00,weatherlink.com 1.10,2013-07-27 22:06:00,
2013-07-27 17:21:00,60.1,50.0,29.92,WNW,283,4.0,6.0,69,0.00,,,0.00,weatherlink.com 1.10,2013-07-27 22:21:00,
2013-07-27 17:36:00,59.8,50.0,29.92,WNW,298,2.0,10.0,69,0.00,,,0.00,weatherlink.com 1.10,2013-07-27 22:36:00,
2013-07-27 17:51:00,60.8,51.0,29.91,WNW,284,1.0,7.0,71,0.00,,,0.00,weatherlink.com 1.10,2013-07-27 22:51:00,
2013-07-27 18:06:00,61.8,50.0,29.91,West,260,2.0,6.0,66,0.00,,,0.00,weatherlink.com 1.10,2013-07-27 23:06:00,
2013-07-27 18:21:00,60.5,50.0,29.91,WNW,285,2.0,8.0,68,0.00,,,0.00,weatherlink.com 1.10,2013-07-27 23:21:00,
2013-07-27 18:36:00,60.2,51.0,29.91,WNW,302,2.0,5.0,71,0.00,,,0.00,weatherlink.com 1.10,2013-07-27 23:36:00,
2013-07-27 18:51:00,59.9,51.0,29.91,WNW,294,2.0,4.0,72,0.00,,,0.00,weatherlink.com 1.10,2013-07-27 23:51:00,
2013-07-27 19:06:00,59.7,51.0,29.91,West,279,0.0,5.0,73,0.00,,,0.00,weatherlink.com 1.10,2013-07-28 00:06:00,
2013-07-27 19:21:00,59.4,51.0,29.91,WNW,284,0.0,4.0,74,0.00,,,0.00,weatherlink.com 1.10,2013-07-28 00:21:00,
2013-07-27 19:36:00,59.1,52.0,29.90,WSW,239,0.0,3.0,76,0.00,,,0.00,weatherlink.com 1.10,2013-07-28 00:36:00,
2013-07-27 19:51:00,58.8,52.0,29.91,West,276,0.0,4.0,77,0.00,,,0.00,weatherlink.com 1.10,2013-07-28 00:51:00,
2013-07-27 20:06:00,58.7,52.0,29.90,West,266,0.0,4.0,77,0.00,,,0.00,weatherlink.com 1.10,2013-07-28 01:06:00,
2013-07-27 20:21:00,58.6,52.0,29.90,West,270,0.0,2.0,78,0.00,,,0.00,weatherlink.com 1.10,2013-07-28 01:21:00,
2013-07-27 20:36:00,58.2,52.0,29.90,West,270,0.0,0.0,80,0.00,,,0.00,weatherlink.com 1.10,2013-07-28 01:36:00,
2013-07-27 21:21:00,57.4,52.0,29.91,WNW,296,0.0,3.0,82,0.00,,,0.00,weatherlink.com 1.10,2013-07-28 02:21:00,
2013-07-27 21:36:00,57.3,52.0,29.91,NW,323,1.0,3.0,81,0.00,,,0.00,weatherlink.com 1.10,2013-07-28 02:36:00,
2013-07-27 22:21:00,56.7,50.0,29.91,West,275,3.0,5.0,79,0.00,,,0.00,weatherlink.com 1.10,2013-07-28 03:21:00,
2013-07-27 22:51:00,55.7,50.0,29.91,WNW,284,0.0,3.0,81,0.00,,,0.00,weatherlink.com 1.10,2013-07-28 03:51:00,
2013-07-27 23:21:00,54.2,50.0,29.91,West,273,0.0,3.0,85,0.00,,,0.00,weatherlink.com 1.10,2013-07-28 04:21:00,